Find Local Weather

World > North America > United States > Michigan

Harbor Beach, Michigan Regional Weather

Lat: 43.85N, Lon: 82.65W
Wx Zone: MIZ049
Feedback
Expires:201812102300;;601049
ASUS43 KDTX 102210
RWRMI 
MICHIGAN HOURLY REGIONAL WEATHER ROUNDUP
NATIONAL WEATHER SERVICE DETROIT/PONTIAC MI
ISSUED BY NATIONAL WEATHER SERVICE GRAND RAPIDS MI
500 PM EST MON DEC 10 2018

NOTE: "FAIR" INDICATES FEW OR NO CLOUDS BELOW 12,000 FEET WITH NO
SIGNIFICANT WEATHER AND/OR OBSTRUCTION TO VISIBILITY.


MIZ047>049-052>055-059>063-066>070-074>076-081>083-102300-
SOUTHEAST LOWER MICHIGAN
  
CITY           SKY/WX    TMP DP  RH WIND       PRES   REMARKS
ADRIAN         CLOUDY    29  23  78 SW6       30.20F WCI  23          
ALMA           FAIR      32  25  73 SW7       30.12F WCI  26          
ANN ARBOR      CLOUDY    28  24  85 S6        30.18F WCI  22          
BAD AXE        MOCLDY    27  22  84 S7        30.12F WCI  19          
DETROIT CITY   CLOUDY    27  20  75 SW5       30.20S WCI  22          
DETROIT        CLOUDY    28  21  75 S7        30.20F WCI  21          
FLINT          CLOUDY    30  23  75 S8        30.15F WCI  22          
GROSSE ILE     CLOUDY    27  23  84 W3        30.20S                  
HILLSDALE      CLOUDY    32  23  69 SW6       30.16S WCI  26          
HOWELL         CLOUDY    31  24  77 S5        30.15F WCI  26          

CITY           SKY/WX    TMP DP  RH WIND       PRES   REMARKS
JACKSON        MOCLDY    30  23  75 SW9       30.16F WCI  22          
LANSING        FAIR      31  24  75 SW10      30.15F WCI  22          
MASON          FAIR      32  25  76 CALM      30.15F                  
MONROE         CLOUDY    28  27  96 CALM      30.20F                  
MT. CLEMENS    CLOUDY    27  23  85 S5        30.17S FOG     WCI  21  
PONTIAC        CLOUDY    28  22  78 SW7       30.14F WCI  21          
PORT HOPE        N/A     29  22  75 SW9       30.11F WCI  20          
PORT HURON     CLOUDY    27  21  80 S5        30.18S WCI  21          
TRI CITIES     FAIR      32  24  72 SW8       30.12F WCI  25          
YPSILANTI      CLOUDY    30  23  75 S8        30.20S WCI  22          
$$

SKY/WX - Weather  TMP - Temperature  DP - Dew Point  RH - Relative Humidity
WIND - Wind Direction/Speed PRES - Barometric Pressure